Location: Zagreb
(45.8000°N, 16.0000°E)
Time: 12:41:11
(UTC+02:00)

Transit 4A - Visible Passes

Search period start: 16 June 2025 00:00
Search period end: 26 June 2025 00:00
Orbit: 866 x 975 km, 66.8° (Epoch: 15 June)

Date Brightness Start Highest point End Pass type
(mag) Time Alt. Az. Time Alt. Az. Time Alt. Az.
16 Jun 8.7 22:36:09 10° NW 22:41:36 39° WSW 22:46:01 15° S visible
17 Jun 9.3 22:45:21 10° NW 22:50:12 27° WSW 22:54:47 11° SSW visible
18 Jun 9.8 22:54:52 10° WNW 22:58:44 18° WSW 23:02:34 10° SW visible
19 Jun 8.0 21:16:03 10° NW 21:22:00 75° WSW 21:27:47 10° SSE visible
19 Jun 10.1 23:05:14 10° W 23:07:13 12° W 23:09:10 10° WSW visible
20 Jun 8.5 21:24:59 10° NW 21:30:43 52° WSW 21:36:19 10° S visible
21 Jun 9.1 21:34:04 10° NW 21:39:23 35° WSW 21:44:36 10° S visible
22 Jun 9.6 21:43:20 10° NW 21:47:58 24° WSW 21:52:32 10° SSW visible
23 Jun 10.1 21:52:59 10° WNW 21:56:29 16° WSW 21:59:57 10° SW visible
24 Jun 10.5 22:04:14 10° W 22:04:56 10° W 22:05:37 10° WSW visible
